ESMSEKRN

Guest
Details From ESMS - Malmo Sturup
To EKRN - Bornholm Ronne
Flight Number -
Tags generated
Created
Modified
Stats Distance 55 nm / 102 km
Max Altitude 0 ft / 0 m
Waypoints 3
Social Downloads 1
Likes 0
Share VATSIM

Download

Looking for another format? Having issues loading an existing format? Contact us
Advertisement - Login to hide

Notes

Basic altitude profile: - Ascent Rate: 2500ft/min - Ascent Speed: 250kts - Cruise Altitude: 35000ft - Cruise Speed: 420kts - Descent Rate: 1500ft/min - Descent Speed: 250kts Options: - Use NATs: yes - Use PACOTS: yes - Use low airways: yes - Use high airways: yes

Route

ESMS ROE EKRN

ID Type Via Altitude Latitude Longitude Leg Dist Tot Dist Heading (true) Name
O ESMS APT - 0 ft / 0 m 55.52888˚ 13.37111˚ - 0 nm - Malmo Sturup
ROE VOR - 0 ft / 0 m 55.06558˚ 14.75869˚ 54 nm 54 nm 120° / 121° RONNE VOR-DME
O EKRN APT - 0 ft / 0 m 55.06327˚ 14.75956˚ 0 nm 55 nm 168° / 168° Bornholm Ronne

Altitude Profile

Advertisement - Login to hide

ESMS

Details ICAO ESMS (MMX)
Name Malmo Sturup
Region Sweden
Timezone Europe/Stockholm (UTC+2.0)
Stats Elevation 236 ft / 72 m (AMSL)
Location 55.528883° 13.371109°
Runways 2
Magnetic Variation 4.027° E

METAR

ESMS 210020Z 10006KT CAVOK 07/03 Q1028

Decode

TAF

TAF ESMS 202310Z 2100/2124 10008KT CAVOK

Decode

Departure Runways

ID Width Length Bearing (true) Bearing (mag) Surface Threshold Offset Overrun Length
11 59 ft / 18 m 2,609 ft / 795 m 105.31° 101.28° Asphalt 0 ft / 0 m 0 ft / 0 m
17 148 ft / 45 m 9,176 ft / 2,797 m 173.36° 169.33° Asphalt 0 ft / 0 m 98 ft / 30 m
29 59 ft / 18 m 2,609 ft / 795 m 285.32° 281.29° Asphalt 0 ft / 0 m 0 ft / 0 m
35 148 ft / 45 m 9,176 ft / 2,797 m 353.37° 349.34° Asphalt 0 ft / 0 m 98 ft / 30 m

EKRN

Details ICAO EKRN (RNN)
Name Bornholm Ronne
Region Denmark / Faroe Islands
Timezone Europe/Copenhagen (UTC+2.0)
Stats Elevation 52 ft / 16 m (AMSL)
Location 55.063265° 14.759558°
Runways 1
Magnetic Variation 4.444° E

METAR

EKRN 210020Z AUTO 08007KT 9999NDV NCD 11/03 Q1028

Decode

TAF

Not found

Destination Runways

ID Width Length Bearing (true) Bearing (mag) Surface Threshold Offset Overrun Length
11 164 ft / 50 m 6,551 ft / 1,997 m 113.76° 109.32° Asphalt 0 ft / 0 m 197 ft / 60 m
29 164 ft / 50 m 6,551 ft / 1,997 m 293.78° 289.34° Asphalt 0 ft / 0 m 0 ft / 0 m

Approach Navaids

Runway Type Ident Frequency Range Bearing (true) Bearing (mag) Slope Elevation
11 Localiser IAR 109.35 MHz 18 nm / 33 km 113.78° 109.34° - 52 ft / 16 m (AMSL)
11 Glidescope IAR 109.35 MHz 10 nm / 19 km 113.77° 109.33° 3.00° 52 ft / 16 m (AMSL)
11 DME IAR 109.35 MHz 18 nm / 33 km - - - 52 ft / 16 m (AMSL)
29 Localiser IRE 110.30 MHz 18 nm / 33 km 295.54° 291.10° - 52 ft / 16 m (AMSL)
29 Glidescope IRE 110.30 MHz 10 nm / 19 km 293.77° 289.33° 3.00° 52 ft / 16 m (AMSL)
29 DME IRE 110.30 MHz 18 nm / 33 km - - - 55 ft / 17 m (AMSL)

Popular Alternatives